DLH560 EDDF-FNLU

Flight info

Callsign DLH560
Flight time N/A
Altitude 35000
Route ANEKI2L/18 ANEKI Y163 NATOR DCT TRA DCT RIPUS DCT GERSA DCT SOSON DCT ODINA DCT PIDAD DCT TALEP DCT VAREK DCT ERPIN DCT ETOIL DCT CIRTA UA605 CSO UM998 BOD UR978 AS UA604 DLA UG861 MESIN UY339 LIKAD UR526 VNA
Aircraft A346/H-SDE2E3FGHIJ3J4J5M1RWXY/LB1D1

Departure

Time N/A
Airport Frankfurt Main Airport (EDDF)

Arrival

Time 2026-04-25 16:15
Airport Quatro de Fevereiro International Airport (FNLU)
Time Latitude Longitude Altitude Speed Heading
2026-04-25 09:32 41.64157 7.61390 37158 ft 477 kts 201°
2026-04-25 09:33 41.61071 7.59792 37157 ft 476 kts 199°
2026-04-25 09:33 41.54704 7.57241 37157 ft 475 kts 193°
2026-04-25 09:34 41.48207 7.55575 37161 ft 475 kts 189°
2026-04-25 09:34 41.41686 7.54088 37159 ft 476 kts 189°
2026-04-25 09:35 41.35191 7.52600 37159 ft 476 kts 189°
2026-04-25 09:35 41.28668 7.51106 37160 ft 476 kts 189°
2026-04-25 09:36 41.22129 7.49610 37160 ft 476 kts 189°
2026-04-25 09:36 41.15587 7.48117 37161 ft 476 kts 189°
2026-04-25 09:37 41.09088 7.46637 37165 ft 476 kts 189°
2026-04-25 09:37 41.02548 7.45151 37164 ft 477 kts 189°
2026-04-25 09:38 40.95999 7.43664 37163 ft 477 kts 189°
2026-04-25 09:38 40.89455 7.42183 37164 ft 477 kts 189°
2026-04-25 09:39 40.82943 7.40712 37164 ft 478 kts 189°
2026-04-25 09:39 40.76381 7.39232 37164 ft 478 kts 189°
2026-04-25 09:40 40.66545 7.37019 37164 ft 478 kts 189°
2026-04-25 09:40 40.59979 7.35547 37166 ft 478 kts 189°
2026-04-25 09:41 40.53451 7.34085 37166 ft 478 kts 189°
2026-04-25 09:41 40.46888 7.32617 37166 ft 478 kts 189°
2026-04-25 09:42 40.40326 7.31154 37166 ft 478 kts 189°
2026-04-25 09:42 40.33763 7.29693 37166 ft 478 kts 189°
2026-04-25 09:43 40.27213 7.28237 37166 ft 478 kts 189°
2026-04-25 09:43 40.20686 7.26791 37163 ft 478 kts 189°
2026-04-25 09:44 40.14122 7.25338 37164 ft 478 kts 189°
2026-04-25 09:44 40.07562 7.23888 37164 ft 478 kts 189°
2026-04-25 09:45 40.01009 7.22444 37164 ft 478 kts 189°
2026-04-25 09:45 39.94428 7.20995 37163 ft 478 kts 189°
2026-04-25 09:46 39.87861 7.19552 37160 ft 478 kts 189°
2026-04-25 09:46 39.81335 7.18121 37161 ft 478 kts 189°
2026-04-25 09:47 39.74772 7.16685 37161 ft 478 kts 189°
2026-04-25 09:47 39.68180 7.15383 37158 ft 479 kts 188°
2026-04-25 09:48 39.61575 7.14233 37159 ft 479 kts 187°
2026-04-25 09:48 39.54979 7.13074 37158 ft 479 kts 188°
2026-04-25 09:49 39.48372 7.11901 37157 ft 479 kts 188°
2026-04-25 09:49 39.41761 7.10725 37156 ft 479 kts 188°
2026-04-25 09:50 39.35153 7.09550 37158 ft 479 kts 188°
2026-04-25 09:50 39.28539 7.08377 37159 ft 479 kts 188°
2026-04-25 09:51 39.21928 7.07205 37159 ft 480 kts 188°
2026-04-25 09:51 39.15357 7.06042 37158 ft 479 kts 188°
2026-04-25 09:52 39.08732 7.04874 37157 ft 480 kts 188°
2026-04-25 09:52 39.02108 7.03705 37157 ft 480 kts 188°
2026-04-25 09:53 38.95475 7.02580 37156 ft 480 kts 187°
2026-04-25 09:53 38.88848 7.01515 37150 ft 480 kts 187°
2026-04-25 09:54 38.82212 7.00447 37156 ft 481 kts 187°
2026-04-25 09:54 38.75596 6.99377 37155 ft 480 kts 187°
2026-04-25 09:55 38.68949 6.98303 37152 ft 481 kts 187°
2026-04-25 09:55 38.62365 6.97244 37152 ft 480 kts 188°
2026-04-25 09:56 38.55727 6.96173 37150 ft 480 kts 187°
2026-04-25 09:56 38.49099 6.95107 37145 ft 480 kts 188°
2026-04-25 09:57 38.42462 6.94043 37141 ft 479 kts 188°
2026-04-25 09:57 38.35840 6.92988 37142 ft 481 kts 188°
2026-04-25 09:58 38.29214 6.91921 37144 ft 479 kts 188°
2026-04-25 09:58 38.22592 6.90867 37145 ft 480 kts 188°
2026-04-25 09:59 38.15967 6.89806 37139 ft 479 kts 188°
2026-04-25 09:59 38.09390 6.88764 37142 ft 480 kts 188°
2026-04-25 10:00 38.02765 6.87710 37139 ft 479 kts 188°
2026-04-25 10:00 37.96119 6.86661 37136 ft 480 kts 188°
2026-04-25 10:01 37.89502 6.85613 37134 ft 479 kts 188°
2026-04-25 10:01 37.82875 6.84567 37133 ft 480 kts 188°
2026-04-25 10:02 37.76248 6.83523 37133 ft 478 kts 189°
2026-04-25 10:02 37.69695 6.82493 37127 ft 477 kts 188°
2026-04-25 10:03 37.63116 6.81460 37127 ft 477 kts 189°
2026-04-25 10:03 37.56518 6.80423 37125 ft 477 kts 188°
2026-04-25 10:04 37.49940 6.79395 37119 ft 476 kts 189°
2026-04-25 10:04 37.43366 6.78366 37122 ft 475 kts 188°
2026-04-25 10:05 37.36843 6.77352 37120 ft 475 kts 189°
2026-04-25 10:05 37.30273 6.76327 37117 ft 475 kts 188°
2026-04-25 10:06 37.23712 6.75306 37115 ft 474 kts 188°
2026-04-25 10:06 37.17163 6.74291 37117 ft 474 kts 188°
2026-04-25 10:07 37.10603 6.73277 37112 ft 474 kts 188°
2026-04-25 10:07 37.04102 6.72273 37100 ft 474 kts 188°
2026-04-25 10:08 36.97537 6.71260 37110 ft 473 kts 188°
2026-04-25 10:08 36.90994 6.70252 37109 ft 473 kts 188°
2026-04-25 10:09 36.84442 6.69245 37109 ft 473 kts 188°
2026-04-25 10:09 36.77913 6.68245 37098 ft 472 kts 188°
2026-04-25 10:10 36.71404 6.67248 37100 ft 470 kts 188°
2026-04-25 10:10 36.64906 6.66252 37101 ft 470 kts 188°
2026-04-25 10:11 36.58403 6.65258 37098 ft 470 kts 188°
2026-04-25 10:11 36.51955 6.64275 37112 ft 470 kts 188°
2026-04-25 10:12 36.45460 6.63285 37119 ft 470 kts 188°
2026-04-25 10:13 36.35723 6.61805 37131 ft 470 kts 188°
2026-04-25 10:13 36.29212 6.61026 37127 ft 470 kts 184°
2026-04-25 10:14 36.22659 6.61027 37131 ft 471 kts 180°
2026-04-25 10:14 36.16104 6.61233 37127 ft 471 kts 180°
2026-04-25 10:15 36.10658 6.61399 37122 ft 471 kts 180°
2026-04-25 10:15 36.04104 6.61595 37112 ft 471 kts 180°
2026-04-25 10:16 35.97533 6.61791 37115 ft 471 kts 180°
2026-04-25 10:16 35.90963 6.61986 37103 ft 471 kts 180°
2026-04-25 10:17 35.84449 6.62179 37114 ft 471 kts 180°
2026-04-25 10:17 35.77882 6.62373 37109 ft 471 kts 180°
2026-04-25 10:18 35.71318 6.62567 37114 ft 471 kts 180°
2026-04-25 10:18 35.64755 6.62761 37111 ft 471 kts 180°
2026-04-25 10:19 35.58191 6.62954 37119 ft 471 kts 180°
2026-04-25 10:19 35.51657 6.63147 37115 ft 467 kts 180°
2026-04-25 10:20 35.45160 6.63337 37122 ft 467 kts 180°
2026-04-25 10:20 35.38710 6.63526 37121 ft 466 kts 180°
2026-04-25 10:21 35.32215 6.63715 37128 ft 466 kts 180°
2026-04-25 10:21 35.25726 6.63905 37134 ft 466 kts 180°
2026-04-25 10:22 35.19247 6.64094 37134 ft 466 kts 180°
2026-04-25 10:22 35.12762 6.64282 37139 ft 465 kts 180°
2026-04-25 10:23 35.06324 6.64468 37123 ft 465 kts 180°
2026-04-25 10:23 34.99789 6.64662 37140 ft 470 kts 180°
2026-04-25 10:24 34.93277 6.64846 37134 ft 470 kts 180°
2026-04-25 10:24 34.86723 6.65033 37134 ft 470 kts 180°
2026-04-25 10:25 34.80175 6.65222 37118 ft 471 kts 181°
2026-04-25 10:25 34.73585 6.65431 37127 ft 475 kts 181°
2026-04-25 10:26 34.66976 6.65624 37130 ft 475 kts 181°
2026-04-25 10:26 34.60401 6.65818 37128 ft 476 kts 181°
2026-04-25 10:27 34.53782 6.66017 37119 ft 476 kts 182°
2026-04-25 10:27 34.47161 6.66218 37125 ft 475 kts 182°
2026-04-25 10:28 34.40552 6.66414 37127 ft 475 kts 182°
2026-04-25 10:28 34.33944 6.66610 37119 ft 475 kts 182°
2026-04-25 10:29 34.27336 6.66808 37113 ft 474 kts 182°
2026-04-25 10:29 34.20794 6.67005 37123 ft 473 kts 182°
2026-04-25 10:30 34.14216 6.67199 37127 ft 473 kts 182°
2026-04-25 10:30 34.07637 6.67393 37124 ft 473 kts 182°
2026-04-25 10:31 34.01058 6.67590 37113 ft 472 kts 182°
2026-04-25 10:31 33.94467 6.67786 37107 ft 472 kts 182°
2026-04-25 10:32 33.87904 6.67978 37116 ft 472 kts 182°
2026-04-25 10:32 33.81340 6.68171 37112 ft 472 kts 182°
2026-04-25 10:33 33.74777 6.68367 37094 ft 471 kts 183°
2026-04-25 10:33 33.68263 6.68560 37099 ft 471 kts 183°
2026-04-25 10:34 33.61698 6.68750 37109 ft 471 kts 183°
2026-04-25 10:34 33.55142 6.68941 37105 ft 471 kts 183°
2026-04-25 10:35 33.48587 6.69136 37097 ft 470 kts 184°
2026-04-25 10:35 33.42033 6.69332 37099 ft 469 kts 184°
2026-04-25 10:36 33.35542 6.69517 37105 ft 469 kts 184°
2026-04-25 10:36 33.29012 6.69706 37101 ft 469 kts 184°
2026-04-25 10:37 33.22491 6.69894 37098 ft 469 kts 184°
2026-04-25 10:37 33.15960 6.70084 37095 ft 469 kts 184°
2026-04-25 10:38 33.09428 6.70273 37092 ft 469 kts 184°
2026-04-25 10:38 33.02904 6.70462 37090 ft 469 kts 184°
2026-04-25 10:39 32.96389 6.70652 37066 ft 469 kts 184°
2026-04-25 10:39 32.89898 6.70842 37080 ft 470 kts 184°
2026-04-25 10:40 32.83359 6.71029 37082 ft 470 kts 184°
2026-04-25 10:40 32.76813 6.71216 37083 ft 470 kts 184°
2026-04-25 10:41 32.70274 6.71404 37059 ft 470 kts 184°
2026-04-25 10:41 32.63718 6.71594 37071 ft 471 kts 184°
2026-04-25 10:42 32.57161 6.71781 37069 ft 471 kts 184°
2026-04-25 10:42 32.50649 6.71967 37073 ft 471 kts 184°
2026-04-25 10:43 32.44081 6.72155 37071 ft 471 kts 184°
2026-04-25 10:43 32.37510 6.72345 37058 ft 473 kts 185°
2026-04-25 10:44 32.30922 6.72531 37054 ft 474 kts 185°
2026-04-25 10:44 32.24361 6.72718 37058 ft 474 kts 185°
2026-04-25 10:45 32.17764 6.72905 37056 ft 474 kts 185°
2026-04-25 10:45 32.11167 6.73095 37043 ft 475 kts 185°
2026-04-25 10:46 32.04568 6.73281 37047 ft 475 kts 185°
2026-04-25 10:46 31.97938 6.73468 37042 ft 475 kts 185°
2026-04-25 10:47 31.91374 6.73653 37045 ft 475 kts 185°
2026-04-25 10:47 31.84771 6.73840 37030 ft 475 kts 185°
2026-04-25 10:48 31.78144 6.74027 37030 ft 475 kts 185°
2026-04-25 10:48 31.71532 6.74213 37029 ft 475 kts 185°
2026-04-25 10:49 31.64921 6.74398 37023 ft 475 kts 185°
2026-04-25 10:49 31.58353 6.74582 37010 ft 475 kts 185°
2026-04-25 10:50 31.51746 6.74768 37021 ft 475 kts 185°
2026-04-25 10:50 31.45138 6.74952 37020 ft 475 kts 185°
2026-04-25 10:51 31.38529 6.75137 37015 ft 475 kts 185°
2026-04-25 10:51 31.31915 6.75322 37000 ft 475 kts 185°
2026-04-25 10:52 31.25311 6.75506 37007 ft 475 kts 185°
2026-04-25 10:52 31.18694 6.75690 37002 ft 475 kts 185°
2026-04-25 10:53 31.12136 6.75872 36998 ft 475 kts 185°
2026-04-25 10:53 31.05511 6.76056 36977 ft 475 kts 185°
2026-04-25 10:54 30.98888 6.76239 36992 ft 475 kts 185°
2026-04-25 10:54 30.92271 6.76423 36993 ft 475 kts 185°
2026-04-25 10:55 30.85648 6.76606 36988 ft 475 kts 185°
2026-04-25 10:55 30.79031 6.76789 36989 ft 476 kts 185°
2026-04-25 10:56 30.72406 6.76970 36974 ft 476 kts 185°
2026-04-25 10:56 30.65818 6.77152 36983 ft 476 kts 185°
2026-04-25 10:57 30.59190 6.77335 36983 ft 476 kts 185°
2026-04-25 10:57 30.52572 6.77517 36976 ft 476 kts 185°
2026-04-25 10:58 30.45938 6.77698 36980 ft 476 kts 185°
2026-04-25 10:58 30.39304 6.77880 36974 ft 476 kts 185°
2026-04-25 10:59 30.32676 6.78061 36972 ft 476 kts 185°
2026-04-25 10:59 30.26092 6.78241 36972 ft 476 kts 185°
2026-04-25 11:00 30.19458 6.78421 36957 ft 477 kts 185°
2026-04-25 11:00 30.12817 6.78602 36968 ft 477 kts 185°
2026-04-25 11:01 30.06161 6.78783 36966 ft 477 kts 185°
2026-04-25 11:01 29.99509 6.78963 36962 ft 477 kts 185°
2026-04-25 11:02 29.92912 6.79143 36937 ft 477 kts 185°
2026-04-25 11:02 29.86280 6.79322 36955 ft 477 kts 185°
2026-04-25 11:03 29.79635 6.79502 36957 ft 477 kts 185°
2026-04-25 11:03 29.72995 6.79682 36952 ft 477 kts 185°
2026-04-25 11:04 29.66356 6.79861 36950 ft 477 kts 185°
2026-04-25 11:04 29.60836 6.80010 36949 ft 477 kts 185°
2026-04-25 11:05 29.54200 6.80189 36957 ft 476 kts 185°
2026-04-25 11:05 29.47573 6.80366 36957 ft 476 kts 185°
2026-04-25 11:06 29.40940 6.80544 36950 ft 476 kts 185°
2026-04-25 11:06 29.34310 6.80722 36943 ft 476 kts 185°
2026-04-25 11:07 29.27690 6.80900 36952 ft 476 kts 185°
2026-04-25 11:07 29.21114 6.81075 36947 ft 475 kts 185°
2026-04-25 11:08 29.14497 6.81252 36951 ft 475 kts 185°
2026-04-25 11:08 29.07882 6.81428 36949 ft 475 kts 185°
2026-04-25 11:09 29.01266 6.81606 36941 ft 476 kts 185°
2026-04-25 11:09 28.94632 6.81782 36946 ft 475 kts 186°
2026-04-25 11:10 28.88015 6.81957 36945 ft 475 kts 185°
2026-04-25 11:10 28.81402 6.82131 36944 ft 476 kts 185°
2026-04-25 11:11 28.74783 6.82308 36932 ft 475 kts 186°
2026-04-25 11:11 28.68176 6.82483 36943 ft 475 kts 186°
2026-04-25 11:12 28.61610 6.82656 36943 ft 474 kts 186°
2026-04-25 11:12 28.55007 6.82829 36944 ft 475 kts 186°
2026-04-25 11:13 28.48397 6.83003 36917 ft 475 kts 186°
2026-04-25 11:13 28.41809 6.83178 36940 ft 474 kts 186°
2026-04-25 11:14 28.35206 6.83351 36941 ft 473 kts 186°
2026-04-25 11:14 28.28617 6.83523 36939 ft 473 kts 186°
2026-04-25 11:15 28.22073 6.83694 36942 ft 473 kts 186°
2026-04-25 11:15 28.15486 6.83868 36926 ft 473 kts 185°
2026-04-25 11:16 28.05574 6.84781 36943 ft 477 kts 181°
2026-04-25 11:16 27.98959 6.85517 36941 ft 477 kts 182°
2026-04-25 11:17 27.92341 6.86251 36944 ft 477 kts 182°
2026-04-25 11:17 27.85731 6.86982 36920 ft 477 kts 182°
2026-04-25 11:18 27.79163 6.87710 36938 ft 477 kts 182°
2026-04-25 11:18 27.72563 6.88438 36936 ft 477 kts 182°
2026-04-25 11:19 27.65956 6.89165 36935 ft 477 kts 182°
2026-04-25 11:19 27.59344 6.89892 36937 ft 476 kts 182°
2026-04-25 11:20 27.52749 6.90618 36929 ft 477 kts 182°
2026-04-25 11:20 27.46151 6.91343 36934 ft 477 kts 182°
2026-04-25 11:21 27.39581 6.92063 36929 ft 477 kts 182°
2026-04-25 11:21 27.32976 6.92787 36930 ft 477 kts 182°
2026-04-25 11:22 27.27448 6.93392 36914 ft 476 kts 182°
2026-04-25 11:22 27.19783 6.94231 36925 ft 476 kts 182°
2026-04-25 11:23 27.13187 6.94950 36923 ft 476 kts 182°
2026-04-25 11:23 27.06584 6.95670 36924 ft 476 kts 182°
2026-04-25 11:24 26.99994 6.96388 36889 ft 476 kts 182°
2026-04-25 11:24 26.93380 6.97108 36924 ft 476 kts 182°
2026-04-25 11:25 26.86854 6.97817 36927 ft 473 kts 182°
2026-04-25 11:25 26.80279 6.98531 36911 ft 475 kts 182°
2026-04-25 11:26 26.73696 6.99243 36918 ft 475 kts 182°
2026-04-25 11:26 26.67113 6.99953 36909 ft 475 kts 182°
2026-04-25 11:27 26.60540 7.00669 36906 ft 474 kts 182°
2026-04-25 11:27 26.55069 7.01259 36916 ft 476 kts 182°
2026-04-25 11:28 26.47346 7.02091 36923 ft 475 kts 182°
2026-04-25 11:28 26.40772 7.02801 36906 ft 474 kts 182°
2026-04-25 11:29 26.34247 7.03502 36906 ft 474 kts 182°
2026-04-25 11:29 26.27683 7.04208 36912 ft 474 kts 182°
2026-04-25 11:30 26.21124 7.04912 36915 ft 473 kts 182°
2026-04-25 11:30 26.14555 7.05616 36916 ft 474 kts 182°
2026-04-25 11:31 26.07980 7.06319 36888 ft 474 kts 182°
2026-04-25 11:31 26.01466 7.07018 36920 ft 472 kts 182°
2026-04-25 11:32 25.94939 7.07726 36939 ft 471 kts 182°
2026-04-25 11:32 25.88419 7.08439 36916 ft 471 kts 182°
2026-04-25 11:33 25.81867 7.09153 36927 ft 474 kts 182°
2026-04-25 11:33 25.75300 7.09870 36913 ft 474 kts 182°
2026-04-25 11:34 25.68739 7.10584 36935 ft 473 kts 182°
2026-04-25 11:34 25.62171 7.11298 36936 ft 474 kts 182°
2026-04-25 11:35 25.55610 7.12010 36936 ft 473 kts 182°
2026-04-25 11:35 25.49094 7.12715 36937 ft 474 kts 182°
2026-04-25 11:36 25.42533 7.13427 36932 ft 474 kts 182°
2026-04-25 11:36 25.35969 7.14137 36941 ft 474 kts 182°
2026-04-25 11:37 25.29397 7.14846 36947 ft 474 kts 182°
2026-04-25 11:37 25.22835 7.15554 36945 ft 474 kts 182°
2026-04-25 11:38 25.16272 7.16261 36943 ft 474 kts 182°
2026-04-25 11:38 25.09714 7.16969 36937 ft 474 kts 182°
2026-04-25 11:39 25.03150 7.17673 36942 ft 474 kts 183°
2026-04-25 11:39 24.96613 7.18373 36934 ft 474 kts 182°
2026-04-25 11:40 24.90045 7.19081 36942 ft 474 kts 182°
2026-04-25 11:40 24.83471 7.19790 36915 ft 474 kts 182°
2026-04-25 11:41 24.76910 7.20499 36929 ft 474 kts 183°
2026-04-25 11:41 24.70343 7.21203 36934 ft 474 kts 183°
2026-04-25 11:42 24.63762 7.21908 36933 ft 474 kts 183°
2026-04-25 11:42 24.57231 7.22607 36935 ft 474 kts 183°
2026-04-25 11:43 24.50657 7.23311 36934 ft 474 kts 183°
2026-04-25 11:43 24.44097 7.24013 36934 ft 474 kts 183°
2026-04-25 11:44 24.37530 7.24714 36936 ft 474 kts 183°
2026-04-25 11:44 24.30956 7.25416 36935 ft 474 kts 183°
2026-04-25 11:45 24.24388 7.26115 36936 ft 474 kts 183°
2026-04-25 11:45 24.17820 7.26816 36930 ft 474 kts 183°
2026-04-25 11:46 24.11293 7.27510 36941 ft 474 kts 183°
2026-04-25 11:46 24.04726 7.28207 36944 ft 474 kts 183°
2026-04-25 11:47 23.98167 7.28904 36941 ft 474 kts 183°
2026-04-25 11:47 23.91606 7.29599 36942 ft 474 kts 183°
2026-04-25 11:48 23.85038 7.30295 36932 ft 474 kts 183°
2026-04-25 11:48 23.78457 7.30991 36940 ft 474 kts 183°
2026-04-25 11:49 23.71888 7.31684 36943 ft 474 kts 183°
2026-04-25 11:49 23.65318 7.32377 36933 ft 474 kts 183°
2026-04-25 11:50 23.58740 7.33070 36938 ft 474 kts 183°
2026-04-25 11:50 23.52204 7.33760 36916 ft 474 kts 183°
2026-04-25 11:51 23.45624 7.34660 36931 ft 477 kts 181°
2026-04-25 11:51 23.39038 7.35613 36919 ft 477 kts 181°
2026-04-25 11:52 23.33555 7.36405 36921 ft 477 kts 181°
2026-04-25 11:52 23.26981 7.37354 36916 ft 477 kts 181°
2026-04-25 11:53 23.20400 7.38303 36912 ft 477 kts 181°
2026-04-25 11:53 23.13819 7.39250 36911 ft 477 kts 181°
2026-04-25 11:54 23.07238 7.40197 36908 ft 477 kts 181°
2026-04-25 11:55 22.97345 7.41618 36904 ft 477 kts 181°
2026-04-25 11:55 22.90808 7.42556 36873 ft 477 kts 181°
2026-04-25 11:56 22.84226 7.43500 36894 ft 477 kts 181°
2026-04-25 11:56 22.77638 7.44443 36894 ft 477 kts 181°
2026-04-25 11:57 22.71057 7.45385 36901 ft 477 kts 181°
2026-04-25 11:57 22.64477 7.46325 36900 ft 477 kts 181°
2026-04-25 11:58 22.57898 7.47264 36871 ft 477 kts 181°
2026-04-25 11:58 22.51312 7.48204 36887 ft 477 kts 181°
2026-04-25 11:59 22.44767 7.49136 36886 ft 477 kts 181°
2026-04-25 11:59 22.38183 7.50074 36883 ft 477 kts 181°
2026-04-25 12:00 22.28281 7.51482 36866 ft 477 kts 181°
2026-04-25 12:01 22.18381 7.52887 36886 ft 478 kts 181°
2026-04-25 12:01 22.11819 7.53818 36877 ft 478 kts 181°
2026-04-25 12:02 22.01910 7.55222 36871 ft 478 kts 181°
2026-04-25 12:02 21.95294 7.56159 36840 ft 478 kts 181°
2026-04-25 12:03 21.88690 7.57091 36859 ft 479 kts 181°
2026-04-25 12:03 21.82091 7.58024 36865 ft 479 kts 181°
2026-04-25 12:04 21.75477 7.58957 36860 ft 478 kts 181°
2026-04-25 12:04 21.68887 7.59887 36861 ft 478 kts 181°
2026-04-25 12:05 21.62291 7.60816 36845 ft 477 kts 181°
2026-04-25 12:05 21.55701 7.61742 36847 ft 477 kts 181°
2026-04-25 12:06 21.49156 7.62663 36853 ft 477 kts 181°
2026-04-25 12:06 21.42574 7.63587 36855 ft 477 kts 181°
2026-04-25 12:07 21.35985 7.64511 36852 ft 477 kts 181°
2026-04-25 12:07 21.29403 7.65434 36853 ft 477 kts 181°
2026-04-25 12:08 21.22859 7.66351 36847 ft 477 kts 181°
2026-04-25 12:08 21.16262 7.67274 36847 ft 477 kts 181°
2026-04-25 12:09 21.09680 7.68193 36835 ft 477 kts 181°
2026-04-25 12:09 21.03090 7.69113 36836 ft 477 kts 181°
2026-04-25 12:10 20.96498 7.70001 36799 ft 475 kts 183°
2026-04-25 12:10 20.89980 7.70553 36834 ft 473 kts 185°
2026-04-25 12:11 20.83421 7.71084 36828 ft 472 kts 185°
2026-04-25 12:11 20.76848 7.71614 36821 ft 472 kts 185°
2026-04-25 12:12 20.71394 7.72054 36824 ft 473 kts 185°
2026-04-25 12:12 20.63725 7.72671 36820 ft 473 kts 184°
2026-04-25 12:13 20.57185 7.73196 36806 ft 472 kts 184°
2026-04-25 12:13 20.50640 7.73724 36810 ft 472 kts 184°
2026-04-25 12:14 20.44091 7.74251 36809 ft 472 kts 184°
2026-04-25 12:14 20.37533 7.74777 36800 ft 472 kts 184°
2026-04-25 12:15 20.30974 7.75303 36800 ft 472 kts 184°
2026-04-25 12:15 20.24477 7.75822 36782 ft 472 kts 184°
2026-04-25 12:16 20.17931 7.76347 36793 ft 471 kts 184°
2026-04-25 12:16 20.11382 7.76872 36785 ft 472 kts 184°
2026-04-25 12:17 20.04824 7.77396 36788 ft 472 kts 184°
2026-04-25 12:17 19.98256 7.77921 36775 ft 472 kts 184°
2026-04-25 12:18 19.91704 7.78442 36766 ft 471 kts 184°
2026-04-25 12:18 19.85210 7.78961 36773 ft 471 kts 184°
2026-04-25 12:19 19.75398 7.79743 36776 ft 471 kts 184°
2026-04-25 12:20 19.68854 7.80264 36774 ft 471 kts 184°
2026-04-25 12:20 19.62312 7.80783 36747 ft 471 kts 184°
2026-04-25 12:21 19.55768 7.81301 36761 ft 471 kts 184°
2026-04-25 12:21 19.49275 7.81819 36758 ft 471 kts 184°
2026-04-25 12:22 19.42738 7.82358 36758 ft 471 kts 184°
2026-04-25 12:22 19.36201 7.82901 36760 ft 471 kts 184°
2026-04-25 12:23 19.29665 7.83442 36755 ft 471 kts 184°
2026-04-25 12:23 19.23124 7.83980 36748 ft 471 kts 183°
2026-04-25 12:24 19.16575 7.84521 36750 ft 472 kts 183°
2026-04-25 12:24 19.10029 7.85061 36745 ft 472 kts 183°
2026-04-25 12:25 19.04591 7.85508 36727 ft 472 kts 183°
2026-04-25 12:25 18.96925 7.86139 36738 ft 472 kts 183°
2026-04-25 12:26 18.90420 7.86670 36727 ft 472 kts 183°
2026-04-25 12:26 18.83862 7.87208 36730 ft 473 kts 183°
2026-04-25 12:27 18.77303 7.87749 36731 ft 472 kts 183°
2026-04-25 12:27 18.70740 7.88287 36729 ft 473 kts 183°
2026-04-25 12:28 18.64171 7.88824 36726 ft 473 kts 183°
2026-04-25 12:28 18.57598 7.89360 36719 ft 474 kts 183°
2026-04-25 12:29 18.51024 7.89897 36725 ft 474 kts 183°
2026-04-25 12:29 18.44477 7.90434 36728 ft 474 kts 183°
2026-04-25 12:30 18.37903 7.90972 36733 ft 474 kts 183°
2026-04-25 12:30 18.31308 7.91510 36731 ft 474 kts 183°
2026-04-25 12:31 18.24726 7.92044 36714 ft 475 kts 182°
2026-04-25 12:31 18.18166 7.92576 36728 ft 476 kts 182°
2026-04-25 12:32 18.11555 7.93116 36728 ft 476 kts 182°
2026-04-25 12:32 18.04935 7.93656 36727 ft 476 kts 182°
2026-04-25 12:33 17.98308 7.94195 36732 ft 476 kts 182°
2026-04-25 12:33 17.91689 7.94732 36729 ft 476 kts 182°
2026-04-25 12:34 17.85079 7.95269 36731 ft 476 kts 182°
2026-04-25 12:34 17.78470 7.95804 36731 ft 476 kts 182°
2026-04-25 12:35 17.71901 7.96336 36725 ft 476 kts 182°
2026-04-25 12:35 17.65293 7.96871 36728 ft 476 kts 182°
2026-04-25 12:36 17.58682 7.97406 36733 ft 476 kts 182°
2026-04-25 12:36 17.52065 7.97936 36724 ft 477 kts 182°
2026-04-25 12:37 17.45442 7.98473 36726 ft 477 kts 182°
2026-04-25 12:37 17.38818 7.99009 36728 ft 477 kts 182°
2026-04-25 12:38 17.32191 7.99544 36727 ft 477 kts 182°
2026-04-25 12:38 17.26684 7.99988 36746 ft 477 kts 182°
2026-04-25 12:39 17.20069 8.00517 36761 ft 477 kts 181°
2026-04-25 12:39 17.13442 8.01051 36796 ft 477 kts 181°
2026-04-25 12:40 17.06808 8.01587 36824 ft 478 kts 181°
2026-04-25 12:40 17.00216 8.02116 36831 ft 477 kts 181°
2026-04-25 12:41 16.93600 8.02688 36829 ft 478 kts 181°
2026-04-25 12:41 16.86963 8.03337 36711 ft 478 kts 180°
2026-04-25 12:42 16.80333 8.03985 36718 ft 479 kts 180°
2026-04-25 12:42 16.73719 8.04627 36728 ft 479 kts 180°
2026-04-25 12:43 16.67078 8.05268 36727 ft 479 kts 180°
2026-04-25 12:43 16.57124 8.06227 36727 ft 479 kts 180°
2026-04-25 12:44 16.50482 8.06863 36722 ft 479 kts 180°
2026-04-25 12:45 16.40513 8.07821 36729 ft 479 kts 180°
2026-04-25 12:45 16.30594 8.08774 36737 ft 479 kts 180°
2026-04-25 12:46 16.23951 8.09410 36737 ft 479 kts 180°
2026-04-25 12:46 16.17305 8.10046 36726 ft 479 kts 180°
2026-04-25 12:47 16.10664 8.10680 36737 ft 479 kts 180°
2026-04-25 12:47 16.04013 8.11318 36747 ft 479 kts 180°
2026-04-25 12:48 15.97414 8.11949 36748 ft 479 kts 180°
2026-04-25 12:48 15.90764 8.12584 36748 ft 479 kts 180°
2026-04-25 12:49 15.84123 8.13218 36729 ft 479 kts 180°
2026-04-25 12:49 15.77477 8.13850 36740 ft 480 kts 180°
2026-04-25 12:50 15.70866 8.14482 36742 ft 480 kts 180°
2026-04-25 12:50 15.64217 8.15115 36743 ft 480 kts 180°
2026-04-25 12:51 15.57562 8.15749 36747 ft 480 kts 180°
2026-04-25 12:51 15.50911 8.16382 36745 ft 480 kts 180°
2026-04-25 12:52 15.44271 8.17011 36744 ft 479 kts 180°
2026-04-25 12:52 15.37669 8.17639 36752 ft 479 kts 180°
2026-04-25 12:53 15.31008 8.18272 36750 ft 479 kts 180°
2026-04-25 12:53 15.24369 8.18902 36743 ft 479 kts 180°
2026-04-25 12:54 15.17714 8.19533 36740 ft 479 kts 180°
2026-04-25 12:54 15.11074 8.20159 36735 ft 479 kts 179°
2026-04-25 12:55 15.05544 8.20683 36743 ft 479 kts 179°
2026-04-25 12:55 14.97812 8.21421 36744 ft 479 kts 179°
2026-04-25 12:56 14.91170 8.22054 36741 ft 479 kts 179°
2026-04-25 12:56 14.84521 8.22686 36740 ft 479 kts 179°
2026-04-25 12:57 14.77887 8.23316 36746 ft 479 kts 179°
2026-04-25 12:57 14.71248 8.23941 36744 ft 479 kts 179°
2026-04-25 12:58 14.64601 8.24573 36738 ft 479 kts 179°
2026-04-25 12:58 14.58014 8.25198 36744 ft 479 kts 179°
2026-04-25 12:59 14.51375 8.25827 36739 ft 479 kts 179°
2026-04-25 12:59 14.44737 8.26455 36745 ft 479 kts 179°
2026-04-25 13:00 14.39208 8.26978 36741 ft 479 kts 179°
2026-04-25 13:00 14.31453 8.27711 36742 ft 479 kts 179°
2026-04-25 13:01 14.24858 8.28334 36741 ft 479 kts 179°
2026-04-25 13:01 14.18220 8.28960 36746 ft 479 kts 179°
2026-04-25 13:02 14.11581 8.29586 36739 ft 479 kts 179°
2026-04-25 13:02 14.04945 8.30210 36744 ft 478 kts 178°
2026-04-25 13:03 13.98297 8.30835 36745 ft 479 kts 178°
2026-04-25 13:03 13.94963 8.31149 36926 ft 481 kts 178°
2026-04-25 13:03 13.91642 8.31463 37377 ft 478 kts 178°
2026-04-25 13:04 13.88385 8.31771 37855 ft 474 kts 178°
2026-04-25 13:04 13.85115 8.32080 38290 ft 471 kts 178°
2026-04-25 13:04 13.81852 8.32386 38617 ft 469 kts 178°
2026-04-25 13:04 13.78601 8.32691 38742 ft 469 kts 178°
2026-04-25 13:05 13.72104 8.33301 38743 ft 468 kts 178°
2026-04-25 13:05 13.65608 8.33908 38742 ft 467 kts 178°
2026-04-25 13:06 13.59142 8.34516 38741 ft 467 kts 178°
2026-04-25 13:06 13.52661 8.35122 38742 ft 468 kts 178°
2026-04-25 13:07 13.46148 8.35732 38745 ft 468 kts 178°
2026-04-25 13:07 13.39658 8.36339 38745 ft 468 kts 178°
2026-04-25 13:08 13.33200 8.36940 38744 ft 469 kts 178°
2026-04-25 13:08 13.26692 8.37547 38748 ft 470 kts 178°
2026-04-25 13:09 13.20178 8.38158 38743 ft 470 kts 178°
2026-04-25 13:09 13.13663 8.38765 38744 ft 470 kts 178°
2026-04-25 13:10 13.07149 8.39375 38746 ft 470 kts 177°
2026-04-25 13:10 13.00636 8.40022 38751 ft 470 kts 177°
2026-04-25 13:11 12.94169 8.40666 38747 ft 469 kts 177°
2026-04-25 13:11 12.87676 8.41314 38750 ft 468 kts 177°
2026-04-25 13:12 12.81182 8.41958 38749 ft 468 kts 177°
2026-04-25 13:12 12.75789 8.42494 38751 ft 468 kts 177°
2026-04-25 13:13 12.68204 8.43245 38754 ft 468 kts 177°
2026-04-25 13:13 12.61713 8.43887 38745 ft 469 kts 176°
2026-04-25 13:14 12.55209 8.44529 38749 ft 470 kts 176°
2026-04-25 13:14 12.48725 8.45170 38753 ft 470 kts 176°
2026-04-25 13:15 12.42207 8.45814 38746 ft 470 kts 176°
2026-04-25 13:15 12.35688 8.46458 38747 ft 470 kts 176°
2026-04-25 13:16 12.29179 8.47099 38756 ft 470 kts 176°
2026-04-25 13:16 12.22648 8.47747 38751 ft 473 kts 177°
2026-04-25 13:17 12.16118 8.48387 38750 ft 474 kts 177°
2026-04-25 13:17 12.09540 8.49033 38754 ft 474 kts 177°
2026-04-25 13:18 12.02974 8.49756 38748 ft 475 kts 174°
2026-04-25 13:18 11.96463 8.50888 38749 ft 476 kts 173°
2026-04-25 13:19 11.89929 8.52063 38747 ft 477 kts 173°
2026-04-25 13:19 11.85541 8.52849 38750 ft 480 kts 173°
2026-04-25 13:20 11.76757 8.54423 38751 ft 481 kts 173°
2026-04-25 13:20 11.70148 8.55606 38751 ft 481 kts 173°
2026-04-25 13:21 11.63574 8.56781 38751 ft 481 kts 173°
2026-04-25 13:21 11.56964 8.57962 38754 ft 481 kts 173°
2026-04-25 13:22 11.50362 8.59136 38756 ft 482 kts 172°
2026-04-25 13:23 11.40505 8.60898 38763 ft 482 kts 172°
2026-04-25 13:23 11.33856 8.62084 38763 ft 482 kts 172°
2026-04-25 13:24 11.27295 8.63254 38766 ft 482 kts 172°
2026-04-25 13:24 11.20682 8.64432 38765 ft 482 kts 172°
2026-04-25 13:25 11.14077 8.65607 38774 ft 482 kts 172°
2026-04-25 13:25 11.07464 8.66784 38776 ft 482 kts 172°
2026-04-25 13:26 11.00886 8.67954 38773 ft 482 kts 172°
2026-04-25 13:26 10.94290 8.69127 38771 ft 482 kts 172°
2026-04-25 13:27 10.87669 8.70227 38787 ft 481 kts 175°
2026-04-25 13:27 10.81029 8.71000 38787 ft 481 kts 176°
2026-04-25 13:28 10.74379 8.71755 38798 ft 481 kts 176°
2026-04-25 13:28 10.67724 8.72514 38793 ft 481 kts 176°
2026-04-25 13:29 10.62193 8.73145 38801 ft 482 kts 176°
2026-04-25 13:29 10.55512 8.73908 38810 ft 482 kts 176°
2026-04-25 13:30 10.45553 8.75045 38807 ft 482 kts 176°
2026-04-25 13:31 10.35561 8.76182 38817 ft 482 kts 175°
2026-04-25 13:31 10.28889 8.76944 38822 ft 482 kts 175°
2026-04-25 13:32 10.22222 8.77703 38821 ft 482 kts 175°
2026-04-25 13:32 10.15595 8.78458 38835 ft 482 kts 175°
2026-04-25 13:33 10.08919 8.79217 38836 ft 482 kts 175°
2026-04-25 13:33 10.02268 8.79968 38839 ft 478 kts 175°
2026-04-25 13:34 9.95658 8.80723 38849 ft 478 kts 175°
2026-04-25 13:34 9.89091 8.81471 38851 ft 478 kts 175°
2026-04-25 13:35 9.82481 8.82222 38865 ft 478 kts 175°
2026-04-25 13:35 9.75873 8.82971 38867 ft 478 kts 175°
2026-04-25 13:36 9.69266 8.83718 38877 ft 476 kts 174°
2026-04-25 13:36 9.62701 8.84480 38875 ft 472 kts 173°
2026-04-25 13:37 9.56237 8.85386 38873 ft 471 kts 173°
2026-04-25 13:37 9.49738 8.86314 38876 ft 472 kts 173°
2026-04-25 13:38 9.43243 8.87234 38881 ft 471 kts 173°
2026-04-25 13:38 9.36751 8.88144 38871 ft 471 kts 173°
2026-04-25 13:39 9.30248 8.89047 38873 ft 469 kts 172°
2026-04-25 13:39 9.23793 8.89957 38858 ft 468 kts 172°
2026-04-25 13:40 9.17342 8.90864 38856 ft 468 kts 172°
2026-04-25 13:40 9.10919 8.91762 38839 ft 468 kts 172°
2026-04-25 13:41 9.04460 8.92664 38836 ft 468 kts 172°
2026-04-25 13:41 8.98007 8.93565 38822 ft 468 kts 172°
2026-04-25 13:42 8.91551 8.94465 38820 ft 468 kts 172°
2026-04-25 13:42 8.85072 8.95369 38817 ft 469 kts 172°
2026-04-25 13:43 8.78646 8.96264 38797 ft 469 kts 172°
2026-04-25 13:43 8.72174 8.97165 38797 ft 469 kts 172°
2026-04-25 13:44 8.65701 8.98067 38789 ft 469 kts 172°
2026-04-25 13:44 8.59225 8.98968 38786 ft 468 kts 172°
2026-04-25 13:45 8.52812 8.99859 38784 ft 467 kts 172°
2026-04-25 13:45 8.46365 9.00755 38786 ft 468 kts 172°
2026-04-25 13:46 8.39908 9.01636 38791 ft 467 kts 173°
2026-04-25 13:46 8.33451 9.02414 38789 ft 467 kts 173°
2026-04-25 13:47 8.26978 9.03192 38787 ft 468 kts 173°
2026-04-25 13:47 8.20521 9.03965 38786 ft 467 kts 173°
2026-04-25 13:48 8.14105 9.04733 38782 ft 468 kts 173°
2026-04-25 13:48 8.07635 9.05525 38780 ft 467 kts 172°
2026-04-25 13:49 8.01180 9.06410 38774 ft 468 kts 172°
2026-04-25 13:49 7.94733 9.07299 38777 ft 468 kts 172°
2026-04-25 13:50 7.88288 9.08181 38775 ft 467 kts 172°
2026-04-25 13:50 7.81838 9.09062 38778 ft 468 kts 172°
2026-04-25 13:51 7.75400 9.09937 38769 ft 468 kts 172°
2026-04-25 13:51 7.68942 9.10815 38770 ft 468 kts 172°
2026-04-25 13:52 7.62471 9.11694 38776 ft 469 kts 172°
2026-04-25 13:52 7.56008 9.12572 38773 ft 467 kts 172°
2026-04-25 13:53 7.49549 9.13450 38773 ft 469 kts 172°
2026-04-25 13:53 7.43117 9.14322 38775 ft 467 kts 172°
2026-04-25 13:54 7.36677 9.15197 38777 ft 466 kts 172°
2026-04-25 13:54 7.30239 9.16070 38775 ft 468 kts 172°
2026-04-25 13:55 7.23801 9.16940 38770 ft 465 kts 172°
2026-04-25 13:55 7.17422 9.17804 38769 ft 466 kts 172°
2026-04-25 13:56 7.10965 9.18678 38770 ft 467 kts 172°
2026-04-25 13:56 7.04499 9.19260 38776 ft 466 kts 176°
2026-04-25 13:57 6.98017 9.19690 38785 ft 468 kts 176°
2026-04-25 13:57 6.91531 9.20115 38779 ft 465 kts 176°
2026-04-25 13:58 6.85049 9.20542 38780 ft 467 kts 176°
2026-04-25 13:58 6.78600 9.20967 38789 ft 467 kts 176°
2026-04-25 13:59 6.72129 9.21392 38794 ft 467 kts 176°
2026-04-25 13:59 6.65611 9.21822 38794 ft 468 kts 176°
2026-04-25 14:00 6.60205 9.22178 38801 ft 468 kts 176°
2026-04-25 14:00 6.52602 9.22680 38805 ft 468 kts 176°
2026-04-25 14:01 6.46107 9.23107 38809 ft 467 kts 176°
2026-04-25 14:01 6.39654 9.23532 38814 ft 469 kts 176°
2026-04-25 14:02 6.33135 9.23954 38823 ft 470 kts 175°
2026-04-25 14:02 6.26591 9.24387 38825 ft 471 kts 175°
2026-04-25 14:03 6.20048 9.24819 38825 ft 471 kts 175°
2026-04-25 14:03 6.13529 9.25420 38825 ft 470 kts 172°
2026-04-25 14:04 6.07067 9.26173 38819 ft 470 kts 172°
2026-04-25 14:04 6.00557 9.26933 38814 ft 470 kts 172°
2026-04-25 14:05 5.94079 9.27687 38824 ft 467 kts 172°
2026-04-25 14:05 5.87635 9.28434 38822 ft 466 kts 172°
2026-04-25 14:06 5.81185 9.29182 38825 ft 466 kts 172°
2026-04-25 14:06 5.74729 9.29931 38825 ft 466 kts 172°
2026-04-25 14:07 5.68353 9.30904 38826 ft 466 kts 167°
2026-04-25 14:07 5.62019 9.32272 38815 ft 466 kts 167°
2026-04-25 14:08 5.55659 9.33661 38831 ft 467 kts 167°
2026-04-25 14:08 5.49302 9.35044 38833 ft 467 kts 167°
2026-04-25 14:09 5.42943 9.36427 38833 ft 467 kts 167°
2026-04-25 14:09 5.36623 9.37800 38848 ft 467 kts 167°
2026-04-25 14:10 5.30265 9.39182 38852 ft 467 kts 167°
2026-04-25 14:10 5.23904 9.40562 38870 ft 470 kts 167°
2026-04-25 14:11 5.17458 9.41960 38872 ft 475 kts 167°
2026-04-25 14:11 5.11003 9.43363 38879 ft 475 kts 167°
2026-04-25 14:12 5.04526 9.44770 38880 ft 475 kts 167°
2026-04-25 14:12 4.98100 9.46165 38879 ft 475 kts 167°
2026-04-25 14:13 4.91631 9.47566 38878 ft 475 kts 167°
2026-04-25 14:13 4.85160 9.48973 38884 ft 475 kts 167°
2026-04-25 14:14 4.78700 9.50373 38880 ft 474 kts 167°
2026-04-25 14:14 4.72283 9.51762 38880 ft 474 kts 167°
2026-04-25 14:15 4.65788 9.53171 38874 ft 474 kts 167°
2026-04-25 14:15 4.59380 9.54558 38874 ft 474 kts 167°
2026-04-25 14:16 4.52931 9.55954 38874 ft 474 kts 166°
2026-04-25 14:16 4.46582 9.57689 38871 ft 472 kts 161°
2026-04-25 14:17 4.40384 9.59861 38870 ft 471 kts 160°
2026-04-25 14:17 4.34197 9.62056 38871 ft 471 kts 160°
2026-04-25 14:18 4.29065 9.63875 38870 ft 471 kts 160°
2026-04-25 14:18 4.22877 9.66065 38872 ft 471 kts 160°
2026-04-25 14:19 4.16701 9.68248 38857 ft 471 kts 160°
2026-04-25 14:19 4.10513 9.70433 38860 ft 470 kts 160°
2026-04-25 14:20 4.04356 9.72609 38858 ft 469 kts 160°
2026-04-25 14:20 3.98185 9.74631 38858 ft 469 kts 163°
2026-04-25 14:21 3.91847 9.76222 38858 ft 470 kts 165°
2026-04-25 14:21 3.85491 9.77769 38861 ft 470 kts 165°
2026-04-25 14:22 3.79145 9.79313 38862 ft 469 kts 165°
2026-04-25 14:22 3.72782 9.80864 38867 ft 470 kts 165°
2026-04-25 14:23 3.66477 9.82401 38867 ft 470 kts 165°
2026-04-25 14:23 3.60122 9.83951 38875 ft 469 kts 165°
2026-04-25 14:24 3.53785 9.85495 38874 ft 468 kts 165°
2026-04-25 14:24 3.47453 9.87038 38874 ft 468 kts 165°
2026-04-25 14:25 3.41111 9.88582 38869 ft 468 kts 165°
2026-04-25 14:25 3.34772 9.90127 38871 ft 468 kts 165°
2026-04-25 14:26 3.28480 9.91660 38871 ft 468 kts 165°
2026-04-25 14:26 3.22148 9.93202 38869 ft 468 kts 165°
2026-04-25 14:27 3.15818 9.94743 38868 ft 468 kts 165°
2026-04-25 14:27 3.09483 9.96286 38866 ft 468 kts 165°
2026-04-25 14:28 3.03145 9.97829 38866 ft 468 kts 165°
2026-04-25 14:28 2.96822 9.99368 38874 ft 468 kts 165°
2026-04-25 14:29 2.90519 10.00902 38869 ft 467 kts 165°
2026-04-25 14:29 2.84194 10.02441 38869 ft 467 kts 165°
2026-04-25 14:30 2.77871 10.03980 38872 ft 467 kts 165°
2026-04-25 14:30 2.68388 10.06287 38872 ft 467 kts 165°
2026-04-25 14:31 2.62074 10.07824 38875 ft 467 kts 165°
2026-04-25 14:31 2.55757 10.09361 38872 ft 467 kts 165°
2026-04-25 14:32 2.49434 10.10898 38869 ft 467 kts 165°
2026-04-25 14:32 2.43144 10.12428 38869 ft 467 kts 165°
2026-04-25 14:33 2.36819 10.13966 38876 ft 467 kts 165°
2026-04-25 14:33 2.30498 10.15503 38877 ft 467 kts 165°
2026-04-25 14:34 2.24180 10.17039 38873 ft 467 kts 165°
2026-04-25 14:34 2.17852 10.18576 38865 ft 467 kts 165°
2026-04-25 14:35 2.11526 10.20114 38875 ft 467 kts 165°
2026-04-25 14:35 2.05213 10.21646 38869 ft 467 kts 165°
2026-04-25 14:36 1.98947 10.23170 38867 ft 467 kts 165°
2026-04-25 14:36 1.92626 10.24706 38866 ft 467 kts 165°
2026-04-25 14:37 1.86313 10.26238 38872 ft 467 kts 165°
2026-04-25 14:37 1.79993 10.27772 38868 ft 467 kts 165°
2026-04-25 14:38 1.73672 10.29312 38866 ft 467 kts 165°
2026-04-25 14:38 1.67359 10.30847 38866 ft 467 kts 165°
2026-04-25 14:39 1.61047 10.32380 38868 ft 467 kts 165°
2026-04-25 14:39 1.54735 10.33913 38873 ft 467 kts 165°
2026-04-25 14:40 1.48451 10.35439 38877 ft 467 kts 165°
2026-04-25 14:40 1.42131 10.36975 38877 ft 467 kts 165°
2026-04-25 14:41 1.35813 10.38507 38877 ft 467 kts 165°
2026-04-25 14:41 1.29499 10.40039 38882 ft 467 kts 165°
2026-04-25 14:42 1.24243 10.41314 38882 ft 467 kts 165°
2026-04-25 14:42 1.16887 10.43099 38890 ft 467 kts 165°
2026-04-25 14:43 1.10568 10.44631 38892 ft 467 kts 165°
2026-04-25 14:43 1.04244 10.46165 38889 ft 467 kts 165°
2026-04-25 14:44 0.97913 10.47700 38890 ft 468 kts 165°
2026-04-25 14:44 0.91583 10.49235 38890 ft 468 kts 165°
2026-04-25 14:45 0.85258 10.50772 38891 ft 468 kts 165°
2026-04-25 14:45 0.78935 10.52310 38894 ft 468 kts 165°
2026-04-25 14:46 0.72656 10.53835 38891 ft 468 kts 165°
2026-04-25 14:46 0.66331 10.55370 38888 ft 467 kts 165°
2026-04-25 14:47 0.61039 10.56655 38889 ft 468 kts 165°
2026-04-25 14:47 0.53681 10.58442 38886 ft 468 kts 165°
2026-04-25 14:48 0.47350 10.59979 38882 ft 468 kts 165°
2026-04-25 14:48 0.41028 10.61519 38875 ft 468 kts 165°
2026-04-25 14:49 0.34696 10.63060 38875 ft 468 kts 165°
2026-04-25 14:49 0.28356 10.64601 38870 ft 469 kts 165°
2026-04-25 14:50 0.22010 10.66142 38868 ft 469 kts 165°
2026-04-25 14:50 0.15709 10.67673 38867 ft 469 kts 165°
2026-04-25 14:51 0.09371 10.69212 38864 ft 469 kts 165°
2026-04-25 14:51 0.03018 10.70754 38865 ft 469 kts 165°
2026-04-25 14:52 -0.03319 10.72291 38858 ft 470 kts 165°
2026-04-25 14:52 -0.08609 10.73577 38855 ft 471 kts 165°
2026-04-25 14:53 -0.16070 10.75393 38858 ft 472 kts 165°
2026-04-25 14:53 -0.22411 10.76933 38856 ft 472 kts 165°
2026-04-25 14:54 -0.28799 10.78484 38858 ft 472 kts 165°
2026-04-25 14:54 -0.35180 10.80032 38855 ft 472 kts 165°
2026-04-25 14:55 -0.41567 10.81582 38857 ft 472 kts 165°
2026-04-25 14:55 -0.47951 10.83131 38857 ft 472 kts 165°
2026-04-25 14:56 -0.54308 10.84674 38857 ft 472 kts 165°
2026-04-25 14:56 -0.60693 10.86222 38848 ft 472 kts 165°
2026-04-25 14:57 -0.67077 10.87771 38856 ft 472 kts 165°
2026-04-25 14:57 -0.73458 10.89319 38854 ft 472 kts 165°
2026-04-25 14:58 -0.79835 10.90865 38852 ft 470 kts 164°
2026-04-25 14:58 -0.86161 10.92403 38853 ft 470 kts 164°
2026-04-25 14:59 -0.92531 10.93951 38847 ft 470 kts 164°
2026-04-25 14:59 -0.98895 10.95496 38847 ft 470 kts 164°
2026-04-25 15:00 -1.05250 10.97037 38846 ft 470 kts 164°
2026-04-25 15:00 -1.11610 10.98581 38849 ft 470 kts 164°
2026-04-25 15:01 -1.17910 11.00102 38843 ft 467 kts 163°
2026-04-25 15:01 -1.24230 11.01638 38852 ft 467 kts 163°
2026-04-25 15:02 -1.30538 11.03172 38852 ft 467 kts 163°
2026-04-25 15:02 -1.36863 11.04707 38850 ft 467 kts 163°
2026-04-25 15:03 -1.43179 11.06239 38851 ft 467 kts 163°
2026-04-25 15:03 -1.49451 11.07761 38850 ft 467 kts 163°
2026-04-25 15:04 -1.55762 11.09293 38841 ft 466 kts 163°
2026-04-25 15:04 -1.62065 11.10820 38841 ft 466 kts 163°
2026-04-25 15:05 -1.68370 11.12349 38833 ft 466 kts 163°
2026-04-25 15:06 -1.77825 11.14647 38833 ft 466 kts 163°
2026-04-25 15:06 -1.83066 11.15922 38829 ft 466 kts 163°
2026-04-25 15:07 -1.89363 11.17453 38829 ft 466 kts 163°
2026-04-25 15:07 -1.95676 11.18986 38820 ft 467 kts 164°
2026-04-25 15:08 -2.01950 11.20509 38822 ft 467 kts 164°
2026-04-25 15:08 -2.08264 11.22041 38819 ft 467 kts 164°
2026-04-25 15:09 -2.14589 11.23577 38820 ft 467 kts 164°
2026-04-25 15:09 -2.24052 11.25875 38822 ft 467 kts 164°
2026-04-25 15:10 -2.30360 11.27406 38822 ft 465 kts 163°
2026-04-25 15:11 -2.39825 11.29705 38828 ft 465 kts 163°
2026-04-25 15:11 -2.46089 11.31228 38821 ft 466 kts 164°
2026-04-25 15:12 -2.55570 11.33528 38823 ft 467 kts 164°
2026-04-25 15:12 -2.60812 11.34804 38823 ft 467 kts 164°
2026-04-25 15:13 -2.71328 11.37362 38825 ft 468 kts 163°
2026-04-25 15:14 -2.77665 11.38904 38827 ft 468 kts 163°
2026-04-25 15:14 -2.83991 11.40443 38823 ft 468 kts 163°
2026-04-25 15:15 -2.90298 11.41977 38827 ft 468 kts 163°
2026-04-25 15:15 -2.96636 11.43517 38829 ft 468 kts 163°
2026-04-25 15:16 -3.02964 11.45052 38831 ft 468 kts 163°
2026-04-25 15:16 -3.12481 11.47369 38829 ft 469 kts 163°
2026-04-25 15:17 -3.21991 11.49684 38831 ft 469 kts 163°
2026-04-25 15:18 -3.28332 11.51227 38833 ft 469 kts 163°
2026-04-25 15:18 -3.37811 11.53533 38835 ft 469 kts 163°
2026-04-25 15:19 -3.43096 11.54816 38834 ft 471 kts 162°
2026-04-25 15:19 -3.50544 11.56630 38839 ft 471 kts 162°
2026-04-25 15:20 -3.56927 11.58183 38840 ft 471 kts 162°
2026-04-25 15:20 -3.63292 11.59639 38847 ft 473 kts 166°
2026-04-25 15:21 -3.69836 11.60531 38846 ft 476 kts 172°
2026-04-25 15:21 -3.76451 11.60996 38844 ft 476 kts 172°
2026-04-25 15:22 -3.83070 11.61437 38846 ft 476 kts 172°
2026-04-25 15:22 -3.89682 11.61886 38850 ft 476 kts 172°
2026-04-25 15:23 -3.96285 11.62337 38849 ft 476 kts 172°
2026-04-25 15:23 -4.02848 11.62786 38848 ft 476 kts 172°
2026-04-25 15:24 -4.09457 11.63238 38850 ft 476 kts 172°
2026-04-25 15:24 -4.14995 11.63617 38850 ft 476 kts 172°
2026-04-25 15:25 -4.22679 11.64141 38852 ft 476 kts 172°
2026-04-25 15:25 -4.29297 11.64593 38853 ft 477 kts 172°
2026-04-25 15:26 -4.35956 11.65052 38850 ft 481 kts 172°
2026-04-25 15:26 -4.42637 11.65513 38853 ft 481 kts 172°
2026-04-25 15:27 -4.49291 11.65970 38859 ft 481 kts 172°
2026-04-25 15:28 -4.59321 11.66656 38855 ft 481 kts 171°
2026-04-25 15:28 -4.65999 11.67117 38850 ft 481 kts 171°
2026-04-25 15:29 -4.72694 11.67578 38846 ft 481 kts 171°
2026-04-25 15:29 -4.79382 11.68038 38843 ft 482 kts 171°
2026-04-25 15:30 -4.86035 11.68494 38841 ft 482 kts 171°
2026-04-25 15:30 -4.92723 11.68951 38860 ft 480 kts 171°
2026-04-25 15:31 -4.99391 11.69409 38860 ft 480 kts 171°
2026-04-25 15:31 -5.06026 11.70001 38858 ft 477 kts 167°
2026-04-25 15:32 -5.12496 11.71202 38852 ft 473 kts 162°
2026-04-25 15:32 -5.18789 11.73055 38852 ft 470 kts 156°
2026-04-25 15:33 -5.27857 11.76686 38855 ft 467 kts 153°
2026-04-25 15:33 -5.33870 11.79174 38855 ft 467 kts 153°
2026-04-25 15:34 -5.39892 11.81662 38850 ft 467 kts 153°
2026-04-25 15:34 -5.44907 11.83731 38850 ft 467 kts 153°
2026-04-25 15:35 -5.54913 11.87861 38844 ft 467 kts 153°
2026-04-25 15:36 -5.63954 11.91591 38848 ft 467 kts 153°
2026-04-25 15:36 -5.69973 11.94076 38845 ft 467 kts 153°
2026-04-25 15:37 -5.76005 11.96566 38846 ft 467 kts 153°
2026-04-25 15:37 -5.81977 11.99032 38841 ft 467 kts 153°
2026-04-25 15:38 -5.88012 12.01524 38841 ft 467 kts 153°
2026-04-25 15:38 -5.94034 12.04012 38842 ft 467 kts 153°
2026-04-25 15:39 -6.00064 12.06510 38842 ft 469 kts 153°
2026-04-25 15:39 -6.06078 12.08993 38840 ft 470 kts 153°
2026-04-25 15:40 -6.10132 12.10667 38843 ft 470 kts 153°
2026-04-25 15:40 -6.18203 12.14003 38671 ft 471 kts 153°
2026-04-25 15:41 -6.21238 12.15257 38316 ft 471 kts 153°
2026-04-25 15:41 -6.24274 12.16514 37878 ft 473 kts 153°
2026-04-25 15:41 -6.27331 12.17780 37344 ft 476 kts 154°
2026-04-25 15:41 -6.30399 12.19051 36830 ft 479 kts 154°
2026-04-25 15:42 -6.33489 12.20333 36337 ft 482 kts 155°
2026-04-25 15:42 -6.36593 12.21624 35850 ft 482 kts 155°
2026-04-25 15:42 -6.39667 12.22892 35386 ft 484 kts 155°
2026-04-25 15:42 -6.42798 12.24183 34917 ft 486 kts 155°
2026-04-25 15:43 -6.45937 12.25478 34416 ft 488 kts 155°
2026-04-25 15:43 -6.49085 12.26779 33921 ft 490 kts 156°
2026-04-25 15:43 -6.52250 12.28088 33364 ft 493 kts 156°
2026-04-25 15:43 -6.55439 12.29407 32803 ft 494 kts 156°
2026-04-25 15:44 -6.58587 12.30710 32258 ft 496 kts 156°
2026-04-25 15:44 -6.61834 12.32054 31734 ft 498 kts 156°
2026-04-25 15:44 -6.65044 12.33384 31197 ft 500 kts 156°
2026-04-25 15:44 -6.68217 12.34698 30698 ft 501 kts 156°
2026-04-25 15:45 -6.71454 12.36037 30195 ft 501 kts 156°
2026-04-25 15:45 -6.74679 12.37371 29657 ft 501 kts 156°
2026-04-25 15:45 -6.77907 12.38709 29072 ft 502 kts 156°
2026-04-25 15:45 -6.78997 12.39161 28875 ft 501 kts 156°
2026-04-25 15:46 -6.84333 12.41373 27942 ft 495 kts 156°
2026-04-25 15:46 -6.87536 12.42700 27388 ft 495 kts 156°
2026-04-25 15:46 -6.90666 12.43999 26860 ft 492 kts 156°
2026-04-25 15:46 -6.93833 12.45314 26336 ft 489 kts 156°
2026-04-25 15:47 -6.96950 12.46664 25801 ft 485 kts 154°
2026-04-25 15:47 -6.99969 12.48158 25304 ft 481 kts 151°
2026-04-25 15:47 -7.02873 12.49791 24801 ft 478 kts 148°
2026-04-25 15:47 -7.05729 12.51494 24310 ft 475 kts 148°
2026-04-25 15:48 -7.08558 12.53198 23811 ft 471 kts 148°
2026-04-25 15:48 -7.11348 12.54878 23265 ft 461 kts 148°
2026-04-25 15:48 -7.14070 12.56513 22813 ft 449 kts 148°
2026-04-25 15:48 -7.16711 12.58099 22493 ft 433 kts 148°
2026-04-25 15:49 -7.19268 12.59634 22194 ft 424 kts 148°
2026-04-25 15:49 -7.21799 12.61156 21884 ft 422 kts 148°
2026-04-25 15:49 -7.24292 12.62653 21689 ft 421 kts 148°
2026-04-25 15:49 -7.26803 12.64162 21432 ft 420 kts 148°
2026-04-25 15:50 -7.29310 12.65665 21094 ft 417 kts 148°
2026-04-25 15:50 -7.31799 12.67160 20756 ft 414 kts 148°
2026-04-25 15:50 -7.34273 12.68647 20422 ft 412 kts 148°
2026-04-25 15:50 -7.36734 12.70123 20092 ft 410 kts 148°
2026-04-25 15:51 -7.39180 12.71592 19764 ft 408 kts 148°
2026-04-25 15:51 -7.39975 12.72069 19669 ft 407 kts 148°
2026-04-25 15:51 -7.44031 12.74508 19121 ft 403 kts 148°
2026-04-25 15:51 -7.46429 12.75949 18806 ft 401 kts 148°
2026-04-25 15:52 -7.48826 12.77390 18491 ft 399 kts 148°
2026-04-25 15:52 -7.51174 12.78802 18183 ft 397 kts 148°
2026-04-25 15:52 -7.53543 12.80227 17826 ft 396 kts 148°
2026-04-25 15:52 -7.55901 12.81645 17503 ft 393 kts 148°
2026-04-25 15:53 -7.58248 12.83058 17205 ft 392 kts 148°
2026-04-25 15:53 -7.60594 12.84470 16891 ft 390 kts 148°
2026-04-25 15:53 -7.62143 12.85401 16705 ft 389 kts 148°
2026-04-25 15:53 -7.64461 12.86792 16413 ft 386 kts 148°
2026-04-25 15:54 -7.66745 12.88166 16112 ft 377 kts 148°
2026-04-25 15:54 -7.68976 12.89510 15822 ft 370 kts 148°
2026-04-25 15:54 -7.71163 12.90825 15523 ft 362 kts 148°
2026-04-25 15:54 -7.73310 12.92116 15231 ft 355 kts 148°
2026-04-25 15:55 -7.75386 12.93363 14966 ft 348 kts 148°
2026-04-25 15:55 -7.77449 12.94604 14695 ft 341 kts 148°
2026-04-25 15:55 -7.79476 12.95825 14405 ft 336 kts 148°
2026-04-25 15:55 -7.81481 12.97032 14133 ft 333 kts 148°
2026-04-25 15:56 -7.83457 12.98222 13856 ft 328 kts 148°
2026-04-25 15:56 -7.85402 12.99393 13581 ft 323 kts 148°
2026-04-25 15:56 -7.87325 13.00551 13264 ft 318 kts 148°
2026-04-25 15:56 -7.89210 13.01686 12963 ft 313 kts 148°
2026-04-25 15:57 -7.91067 13.02804 12682 ft 308 kts 148°
2026-04-25 15:57 -7.92889 13.03902 12423 ft 302 kts 148°
2026-04-25 15:57 -7.94663 13.04971 12174 ft 300 kts 147°
2026-04-25 15:57 -7.96459 13.06053 11927 ft 299 kts 147°
2026-04-25 15:58 -7.98249 13.07133 11685 ft 299 kts 147°
2026-04-25 15:58 -8.00024 13.08203 11442 ft 297 kts 147°
2026-04-25 15:58 -8.01783 13.09263 11192 ft 292 kts 147°
2026-04-25 15:58 -8.03513 13.10305 10875 ft 286 kts 147°
2026-04-25 15:59 -8.05204 13.11324 10625 ft 281 kts 147°
2026-04-25 15:59 -8.06878 13.12333 10376 ft 280 kts 147°
2026-04-25 15:59 -8.08556 13.13346 10141 ft 280 kts 147°
2026-04-25 15:59 -8.10225 13.14355 9906 ft 279 kts 147°
2026-04-25 16:00 -8.11893 13.15361 9680 ft 278 kts 147°
2026-04-25 16:00 -8.12993 13.16024 9495 ft 278 kts 147°
2026-04-25 16:00 -8.15210 13.17356 9170 ft 276 kts 146°
2026-04-25 16:00 -8.16853 13.18351 8918 ft 275 kts 147°
2026-04-25 16:01 -8.18466 13.19326 8678 ft 271 kts 147°
2026-04-25 16:01 -8.20072 13.20293 8426 ft 266 kts 147°
2026-04-25 16:01 -8.21649 13.21245 8174 ft 262 kts 147°
2026-04-25 16:01 -8.23202 13.22180 7941 ft 257 kts 146°
2026-04-25 16:02 -8.24726 13.23100 7693 ft 253 kts 146°
2026-04-25 16:02 -8.26229 13.24007 7445 ft 249 kts 146°
2026-04-25 16:02 -8.27707 13.24901 7207 ft 246 kts 146°
2026-04-25 16:02 -8.29165 13.25780 6974 ft 243 kts 146°
2026-04-25 16:03 -8.30621 13.26660 6747 ft 243 kts 146°
2026-04-25 16:03 -8.32055 13.27526 6516 ft 242 kts 146°
2026-04-25 16:03 -8.33516 13.28411 6283 ft 242 kts 146°
2026-04-25 16:03 -8.34935 13.29269 6053 ft 240 kts 146°
2026-04-25 16:04 -8.36367 13.30134 5991 ft 240 kts 146°
2026-04-25 16:04 -8.37802 13.31001 5992 ft 240 kts 146°
2026-04-25 16:04 -8.39240 13.31869 5991 ft 241 kts 146°
2026-04-25 16:04 -8.40680 13.32736 5992 ft 241 kts 146°
2026-04-25 16:05 -8.42121 13.33607 5994 ft 241 kts 146°
2026-04-25 16:05 -8.43554 13.34477 5992 ft 241 kts 147°
2026-04-25 16:05 -8.46419 13.36204 5979 ft 231 kts 146°
2026-04-25 16:06 -8.47792 13.36966 5984 ft 221 kts 156°
2026-04-25 16:06 -8.49233 13.37336 5966 ft 208 kts 168°
2026-04-25 16:06 -8.50663 13.37490 5719 ft 205 kts 171°
2026-04-25 16:06 -8.52076 13.37608 5464 ft 202 kts 172°
2026-04-25 16:07 -8.53462 13.37726 5214 ft 198 kts 171°
2026-04-25 16:07 -8.54369 13.37803 5058 ft 196 kts 171°
2026-04-25 16:07 -8.56174 13.37965 4744 ft 194 kts 171°
2026-04-25 16:07 -8.57517 13.38089 4503 ft 193 kts 170°
2026-04-25 16:08 -8.58837 13.38213 4265 ft 192 kts 171°
2026-04-25 16:08 -8.60163 13.38343 4021 ft 191 kts 171°
2026-04-25 16:08 -8.61486 13.38464 3771 ft 190 kts 172°
2026-04-25 16:08 -8.62792 13.38591 3532 ft 188 kts 172°
2026-04-25 16:09 -8.64087 13.38711 3290 ft 186 kts 172°
2026-04-25 16:09 -8.65375 13.38826 3066 ft 185 kts 171°
2026-04-25 16:09 -8.66638 13.38947 3006 ft 182 kts 172°
2026-04-25 16:09 -8.67903 13.39069 3000 ft 184 kts 172°
2026-04-25 16:10 -8.69188 13.39190 3001 ft 186 kts 172°
2026-04-25 16:10 -8.70476 13.39191 2985 ft 189 kts 194°
2026-04-25 16:10 -8.71643 13.38554 3005 ft 194 kts 213°
2026-04-25 16:10 -8.72634 13.37638 2999 ft 193 kts 222°
2026-04-25 16:11 -8.73551 13.36650 2991 ft 190 kts 224°
2026-04-25 16:11 -8.74441 13.35663 2989 ft 189 kts 223°
2026-04-25 16:11 -8.75331 13.34682 2986 ft 189 kts 223°
2026-04-25 16:11 -8.76227 13.33709 2777 ft 188 kts 223°
2026-04-25 16:12 -8.77110 13.32757 2561 ft 187 kts 223°
2026-04-25 16:12 -8.77992 13.31805 2313 ft 182 kts 223°
2026-04-25 16:12 -8.78832 13.30901 2064 ft 170 kts 224°
2026-04-25 16:12 -8.79368 13.30324 1910 ft 162 kts 224°
2026-04-25 16:13 -8.80355 13.29260 1651 ft 155 kts 224°
2026-04-25 16:13 -8.81091 13.28469 1473 ft 154 kts 224°
2026-04-25 16:13 -8.81821 13.27679 1312 ft 154 kts 225°
2026-04-25 16:13 -8.82550 13.26890 1092 ft 153 kts 226°
2026-04-25 16:14 -8.83279 13.26108 884 ft 152 kts 227°
2026-04-25 16:14 -8.84009 13.25326 741 ft 153 kts 229°
2026-04-25 16:14 -8.84738 13.24545 485 ft 151 kts 229°
2026-04-25 16:14 -8.85452 13.23780 301 ft 148 kts 229°
2026-04-25 16:15 -8.86101 13.23076 267 ft 116 kts 226°
2026-04-25 16:15 -8.86535 13.22613 269 ft 74 kts 226°
2026-04-25 16:15 -8.86780 13.22350 267 ft 29 kts 227°
2026-04-25 16:15 -8.86839 13.22236 266 ft 13 kts 287°
2026-04-25 16:16 -8.86802 13.22211 266 ft 6 kts 351°
2026-04-25 16:16 -8.86753 13.22232 267 ft 9 kts 42°
2026-04-25 16:16 -8.86717 13.22290 267 ft 11 kts 83°
2026-04-25 16:16 -8.86707 13.22379 267 ft 14 kts 84°
2026-04-25 16:17 -8.86661 13.22470 268 ft 16 kts 50°
2026-04-25 16:17 -8.86580 13.22564 269 ft 19 kts 47°
2026-04-25 16:17 -8.86479 13.22662 268 ft 22 kts 31°
2026-04-25 16:17 -8.86326 13.22681 267 ft 23 kts
2026-04-25 16:18 -8.86194 13.22733 267 ft 5 kts 40°
2026-04-25 16:18 -8.86193 13.22733 267 ft 0 kts 41°
2026-04-25 16:18 -8.86193 13.22734 267 ft 0 kts 41°
2026-04-25 16:26 -8.86192 13.22734 267 ft 0 kts 41°
2026-04-25 16:35 -8.86191 13.22735 267 ft 1 kts 41°
2026-04-25 16:35 -8.86159 13.22768 267 ft 17 kts 45°
2026-04-25 16:35 -8.86060 13.22873 267 ft 22 kts 47°
2026-04-25 16:36 -8.85947 13.22995 267 ft 25 kts 45°
2026-04-25 16:36 -8.85904 13.23032 267 ft 25 kts 34°
2026-04-25 16:36 -8.85608 13.23061 268 ft 27 kts
2026-04-25 16:36 -8.85416 13.23070 269 ft 26 kts
2026-04-25 16:37 -8.85261 13.23075 269 ft 20 kts
2026-04-25 16:37 -8.85136 13.23085 268 ft 17 kts 22°
2026-04-25 16:37 -8.85068 13.23184 268 ft 19 kts 67°
2026-04-25 16:37 -8.85004 13.23309 268 ft 21 kts 63°
2026-04-25 16:38 -8.84945 13.23455 268 ft 19 kts 83°
2026-04-25 16:38 -8.85021 13.23529 267 ft 16 kts 129°
2026-04-25 16:38 -8.85018 13.23643 267 ft 18 kts 68°
2026-04-25 16:38 -8.84978 13.23724 267 ft 3 kts 24°
2026-04-25 16:39 -8.84950 13.23733 267 ft 5 kts
2026-04-25 16:39 -8.84928 13.23727 267 ft 5 kts 326°
2026-04-25 16:39 -8.84924 13.23722 267 ft 0 kts 306°
2026-04-25 16:39 -8.84919 13.23715 267 ft 0 kts 304°
2026-04-25 16:40 -8.84917 13.23712 267 ft 0 kts 304°